Flag for Sweden Weather past 2 weeks in Södertälje, Sweden

Now
39 °F

Fog.


Feels Like: 39 °F
Forecast: 36 / 58 °F
Wind: No wind

Location: Stockholm Bromma Airport


UV Index: 0 (Low)

Visibility: 0 mi


Pressure: 30.30 "Hg

Humidity: 100%

Dew point: 39 °F

Location of SödertäljeLocation

Historic Weather in Södertälje

°F

Södertälje temperature yesterday

Maximum temperature yesterday: 52 °F (at 5:50 PM)
Minimum temperature yesterday: 41 °F (at 9:50 PM)
Average temperature yesterday: 45 °F

Past Weeks' High & Low Weather Summary

 TemperatureHumidityPressure
High55 °F (Apr 17, 1:50 PM)100% (Apr 7, 6:50 AM)30.33 "Hg (Apr 7, 6:50 AM)
Low28 °F (Apr 4, 7:20 AM)27% (Apr 5, 11:20 AM)29.30 "Hg (Apr 14, 1:20 AM)
Average43 °F71%29.86 "Hg
* Reported Apr 4 7:20 AM — Apr 19 7:50 AM, Södertälje, Weather by CustomWeather, © 2014

Note: Actual official high and low records may vary slightly from our data, if they occured in-between our weather recording intervals... More about our weather records

Advertising

Historic Weather Conditions — Data for Previous 24 hours

 ConditionsComfort  
Time TempWeatherWind HumidityBarometerVisibility
7:50 AM
Apr 19
39 °FFog.2 mph100%30.30 "Hg0 mi
7:20 AM37 °FFog.1 mph100%30.27 "Hg0 mi
6:50 AM39 °FFog.1 mph93%30.27 "Hg0 mi
6:20 AM39 °FFog.1 mph100%30.27 "Hg0 mi
5:50 AM39 °FFog.2 mph100%30.27 "Hg0 mi
5:20 AM39 °FFog.1 mph100%30.24 "Hg0 mi
4:50 AM39 °FFog.2 mph100%30.24 "Hg0 mi
4:20 AM39 °FFog.2 mph100%30.24 "Hg1 mi
3:50 AM39 °FFog.5 mph100%30.24 "Hg0 mi
3:20 AM41 °FFog.3 mph93%30.24 "Hg1 mi
2:50 AM39 °FFog.2 mph100%30.24 "Hg3 mi
2:20 AM39 °FMostly cloudy.5 mph93%30.24 "HgN/A
1:50 AM39 °FMostly cloudy.2 mph93%30.21 "Hg5 mi
1:20 AM41 °FLow clouds.3 mph93%30.21 "HgN/A
12:50 AM41 °FLow clouds.2 mph93%30.21 "HgN/A
12:20 AM43 °FOvercast.3 mph93%30.21 "HgN/A
11:50 PM
Apr 18
43 °FOvercast.5 mph93%30.18 "HgN/A
11:20 PM45 °FLow clouds.6 mph87%30.18 "HgN/A
10:50 PM45 °FLow clouds.6 mph87%30.18 "HgN/A
10:20 PM41 °FOvercast.6 mph93%30.15 "HgN/A
9:50 PM41 °FClear.2 mph93%30.15 "Hg10 mi
9:20 PM43 °FClear.1 mph87%30.12 "Hg10 mi
8:50 PM45 °FSunny.2 mph81%30.12 "Hg10 mi
8:20 PM46 °FSunny.1 mph82%30.09 "Hg10 mi
7:50 PM48 °FSunny.3 mph76%30.07 "Hg10 mi
7:20 PM50 °FSunny.2 mph67%30.07 "Hg10 mi
6:50 PM50 °FPassing clouds.2 mph67%30.04 "HgN/A
6:20 PM52 °FScattered clouds.3 mph67%30.04 "HgN/A
5:50 PM52 °FScattered clouds.1 mph67%30.01 "HgN/A
5:20 PM50 °FBroken clouds.3 mph71%30.01 "HgN/A
4:50 PM50 °FScattered clouds.5 mph76%29.98 "HgN/A
4:20 PM50 °FScattered clouds.6 mph76%29.98 "HgN/A
3:50 PM50 °FPassing clouds.7 mph71%29.98 "HgN/A
3:20 PM48 °FPassing clouds.7 mph76%29.95 "HgN/A
2:50 PM48 °FPassing clouds.6 mph82%29.95 "HgN/A
2:20 PM48 °FPassing clouds.7 mph76%29.92 "HgN/A
1:50 PM46 °FPartly sunny.6 mph87%29.89 "HgN/A
1:20 PM46 °FBroken clouds.7 mph82%29.89 "HgN/A
12:50 PM48 °FBroken clouds.7 mph76%29.86 "HgN/A
12:20 PM48 °FBroken clouds.5 mph82%29.83 "HgN/A
11:50 AM46 °FBroken clouds.5 mph87%29.83 "HgN/A
11:20 AM46 °FPartly sunny.3 mph87%29.80 "HgN/A
10:50 AM46 °FFog.3 mph87%29.80 "Hg5 mi
10:20 AM45 °FPartly sunny.3 mph93%29.77 "HgN/A
9:50 AM45 °FPartly sunny.7 mph93%29.74 "HgN/A
9:20 AM45 °FPartly sunny.6 mph93%29.74 "HgN/A
8:50 AM45 °FDrizzle. Partly sunny.6 mph93%29.71 "Hg5 mi
8:20 AM43 °FDrizzle. Low clouds.5 mph93%29.68 "Hg4 mi
Weather by CustomWeather, © 2014

See weather overview